www.pogodaiklimat.ru

Погода и климат >> Архив погоды >> Бельгия >> Уккел


ПОГОДА в Уккеле

  • Прогноз погоды в Уккеле
  • Монитор погоды в Уккеле

АРХИВ ПОГОДЫ в Уккеле

Время (UTC), дата Ветер
(напр.,м/с)
 
Видим.   Явления Облачность Т
(С)
Тd
(С)
f
(%)
Тe
(С)
Тes
(С)
Комфортность P
(гПа)
Po
(гПа)
Тmin
(С)
Tmax
(С)
R
(мм)
R24
(мм)
S
(см)
13 10.09 СЗ 3 н/о н/о +19.9 +5.7 39 +21 +21 комфорт 1018.1 1006.1 196
14 10.09 СЗ 3 н/о н/о +20.8 +6.5 39 +22 +22 комфорт 1018.3 1006.3 187
15 10.09 З 3 н/о н/о +19.5 +6.2 42 +20 +20 1018.2 1006.2 124
16 10.09 З 3 н/о н/о +20.2 +6.1 40 +21 +21 комфорт 1018.4 1006.4 105
17 10.09 СЗ 4 н/о н/о +19.0 +7.3 47 +19 +19 1018.9 1006.9 52
18 10.09 С 4
{7}
н/о н/о +18.0 +8.4 53 +18 +18 1019.2 1007.1 +20.8 9
19 10.09 С 2 н/о н/о +16.7 +9.8 64 +17 +17 1019.9 1007.8
20 10.09 С 1 н/о н/о +16.4 +9.6 64 +17 +17 1020.6 1008.4
21 10.09 С 1 н/о н/о +15.8 +9.0 64 +17 +17 1020.7 1008.5
22 10.09 ЮЗ 1 н/о н/о +14.6 +9.2 70 +15 +15 1020.7 1008.5
23 10.09 ЮЗ 1 н/о н/о +12.9 +12.2 96 +13 +13 1020.9 1008.6
00 11.09 ЮЗ 2 н/о н/о +13.2 +13.2 100 +12 +12 1021.1 1008.8 141
01 11.09 ЮЗ 1 н/о н/о +13.2 +13.2 100 +13 +13 1021.0 1008.7
02 11.09 ЮЗ 2 н/о н/о +12.5 +12.5 100 +11 +11 1021.0 1008.7
03 11.09 ЮЗ 1 н/о н/о +12.6 +12.6 100 +12 +12 1021.1 1008.8
04 11.09 ЮЗ 2 н/о н/о +12.7 +12.7 100 +12 +12 1020.8 1008.5
05 11.09 Ю 2 н/о н/о +12.9 +12.9 100 +12 +12 1020.9 1008.6
06 11.09 Ю 2
{4}
н/о н/о +13.0 +13.0 100 +12 +12 1021.3 1009.0 +12.4 1
07 11.09 ЮЗ 3 н/о н/о +13.9 +13.9 100 +13 +13 1021.7 1009.4 12
08 11.09 ЮЗ 3 н/о н/о +14.1 +14.1 100 +13 +13 1021.9 1009.6 23
09 11.09 Ю 3
{7}
н/о н/о +14.2 +14.2 100 +13 +13 1022.4 1010.1 31
10 11.09 Ю 4 н/о н/о +14.7 +14.7 100 +13 +13 1022.1 1009.9 42
11 11.09 Ю 5 н/о н/о +15.0 +15.0 100 +13 +13 1022.0 1009.8 61
12 11.09 Ю 5
{10}
н/о н/о +16.0 +16.0 100 +15 +15 1022.0 1009.8 76
13 11.09 ЮЗ 5 н/о н/о +17.2 +17.2 100 +17 +17 1022.0 1009.9 82
14 11.09 ЮЗ 5 н/о н/о +17.5 +17.5 100 +17 +17 1021.9 1009.8 50
15 11.09 ЮЗ 5
{13}
н/о н/о +18.1 +18.1 100 +18 +18 1022.0 1009.9 58
16 11.09 ЮЗ 5 н/о н/о +18.3 +18.3 100 +18 +18 1022.0 1009.9 46
17 11.09 ЮЗ 4 н/о н/о +18.5 +18.5 100 +19 +19 1021.9 1009.9 14
18 11.09 З 4
{13}
н/о н/о +18.4 +18.4 100 +19 +19 1022.3 1010.2 +18.6 4
19 11.09 ЮЗ 3 н/о н/о +16.8 +16.8 100 +17 +17 1022.9 1010.8
20 11.09 ЮЗ 3 н/о н/о +16.7 +16.7 100 +16 +16 1023.4 1011.3
21 11.09 ЮЗ 3 н/о н/о +16.6 +16.6 100 +16 +16 1023.6 1011.4
22 11.09 ЮЗ 3 н/о н/о +16.5 +16.5 100 +16 +16 1023.9 1011.7
23 11.09 ЮЗ 3 н/о н/о +16.6 +16.6 100 +16 +16 1024.0 1011.8
00 12.09 ЮЗ 2
{10}
н/о н/о +16.6 +16.6 100 +17 +17 1024.3 1012.1 50
01 12.09 ЮЗ 2 н/о н/о +16.7 +16.7 100 +17 +17 1024.7 1012.5
02 12.09 ЮЗ 2 н/о н/о +16.7 +16.7 100 +17 +17 1024.9 1012.7
03 12.09 ЮЗ 2 н/о н/о +16.8 +16.8 100 +17 +17 1025.1 1012.9
04 12.09 ЮЗ 2 н/о н/о +16.8 +16.8 100 +17 +17 1025.3 1013.1
05 12.09 З 3 н/о н/о +16.5 +16.5 100 +16 +16 1025.7 1013.5
06 12.09 ЮЗ 1
{7}
н/о н/о +16.1 +16.1 100 +17 +17 1026.2 1014.0 +16.1 2 2
07 12.09 ЮЗ 3 н/о н/о +16.7 +16.7 100 +16 +16 1026.6 1014.4 15
08 12.09 ЮЗ 3 н/о н/о +17.4 +17.4 100 +17 +17 1027.4 1015.2 39
09 12.09 ЮЗ 3
{8}
н/о н/о +18.8 +18.8 100 +20 +20 1028.0 1015.9 102
10 12.09 З 4 н/о н/о +19.3 +19.3 100 +22 +22 комфорт 1028.3 1016.2 83
11 12.09 ЮЗ 5 н/о н/о +20.3 +20.3 100 +24 +24 комфорт 1028.5 1016.5 129
12 12.09 З 5 н/о н/о +21.2 +21.2 100 +27 +27 душно 1028.6 1016.6 157
13 12.09 З 5 н/о н/о +22.3 +12.9 55 +25 +25 комфорт 1028.4 1016.4 194
14 12.09 З 4 н/о н/о +23.3 +13.4 54 +27 +27 душно 1028.3 1016.4 173
15 12.09 З 4 н/о н/о +22.6 +13.3 56 +26 +26 жарко 1028.3 1016.3 110
16 12.09 З 4 н/о н/о +22.3 +14.5 61 +26 +26 жарко 1028.4 1016.4 70
17 12.09 ЮЗ 3 н/о н/о +21.7 +15.0 66 +25 +25 комфорт 1028.7 1016.7 38
18 12.09 ЮЗ 3
{10}
н/о н/о +20.3 +15.8 75 +23 +23 комфорт 1029.0 1016.9 +23.5
19 12.09 ЮЗ 3 н/о н/о +19.4 +19.4 100 +22 +22 комфорт 1029.1 1017.0
20 12.09 ЮЗ 4 н/о н/о +19.3 +19.3 100 +22 +22 комфорт 1029.1 1017.0
21 12.09 З 6 н/о н/о +18.5 +18.5 100 +19 +19 1029.4 1017.3
22 12.09 ЮЗ 4 н/о н/о +17.6 +17.6 100 +17 +17 1029.8 1017.6
23 12.09 ЮЗ 4 н/о н/о +17.7 +17.7 100 +17 +17 1029.5 1017.3
00 13.09 ЮЗ 3 н/о н/о +17.3 +17.3 100 +17 +17 1029.5 1017.3 113
01 13.09 ЮЗ 3 н/о н/о +17.1 +17.1 100 +17 +17 1029.7 1017.5
02 13.09 ЮЗ 3 н/о 10/10 <50 м
[]
+16.9 +16.9 100 +17 +17 1029.6 1017.4
03 13.09 ЮЗ 2 н/о н/о +16.9 +16.9 100 +17 +17 1029.6 1017.4
04 13.09 ЮЗ 2 н/о н/о +16.8 +16.8 100 +17 +17 1029.8 1017.6
05 13.09 ЮЗ 2 н/о н/о +16.8 +16.8 100 +17 +17 1030.2 1018.0
06 13.09 ЮЗ 2
{8}
н/о н/о +16.6 +16.6 100 +17 +17 1030.7 1018.5 +16.6
07 13.09 ЮЗ 2 н/о н/о +16.6 +16.6 100 +17 +17 1031.2 1019.0 4
08 13.09 З 2 н/о н/о +16.7 +16.7 100 +17 +17 1031.8 1019.5 10
09 13.09 ЮЗ 2
{5}
н/о н/о +17.2 +17.2 100 +17 +17 1032.2 1020.0 23
10 13.09 ЮЗ 2 н/о н/о +18.2 +18.2 100 +19 +19 1032.5 1020.3 60
11 13.09 ЮЗ 1 н/о н/о +19.3 +19.3 100 +23 +23 комфорт 1032.2 1020.1 84
12 13.09 З 2 н/о н/о +20.4 +20.4 100 +25 +25 комфорт 1032.3 1020.2 108
13 13.09 С 3 н/о н/о +20.6 +20.6 100 +26 +26 душно 1032.3 1020.2 85
14 13.09 С 3 н/о н/о +21.2 +21.2 100 +27 +27 душно 1032.2 1020.2 98
15 13.09 С 3 н/о н/о +21.0 +21.0 100 +27 +27 душно 1032.2 1020.1 84
16 13.09 СЗ 4 н/о н/о +21.4 +18.6 84 +26 +26 душно 1032.2 1020.1 93
17 13.09 С 5 н/о н/о +19.9 +12.9 64 +22 +22 комфорт 1032.4 1020.3 40
18 13.09 С 4
{8}
н/о н/о +18.8 +12.8 68 +20 +20 1032.9 1020.7 +21.8 11
19 13.09 С 3 н/о н/о +17.9 +12.9 73 +18 +18 1033.5 1021.3
20 13.09 н/о н/о +17.1 +13.0 77 1033.5 1021.2
21 13.09 С 3 н/о н/о +16.1 +15.9 99 +16 +16 1033.8 1021.5
22 13.09 СВ 3 н/о н/о +15.3 +15.3 100 +15 +15 1033.8 1021.5
23 13.09 С 3 н/о н/о +14.8 +14.8 100 +14 +14 1033.8 1021.4
00 14.09 С 2 н/о н/о +14.5 +14.5 100 +14 +14 1033.9 1021.5 70
01 14.09 СВ 3 н/о н/о +13.7 +13.7 100 +12 +12 1033.4 1021.0
02 14.09 СВ 2 н/о ясно +13.0 +13.0 100 +12 +12 1032.9 1020.5
03 14.09 СВ 3 н/о н/о +12.8 +12.8 100 +11 +11 1033.1 1020.7
04 14.09 СВ 3 н/о н/о +12.3 +12.3 100 +11 +11 1033.2 1020.7
05 14.09 В 3 н/о н/о +11.7 +11.7 100 +10 +10 1032.8 1020.3
06 14.09 В 3
{6}
н/о н/о +11.4 +11.4 100 +9 +9 1032.8 1020.3 +11.3 1
07 14.09 В 2 н/о н/о +12.4 +12.4 100 +11 +11 1033.1 1020.6 10
08 14.09 В 2 н/о н/о +14.5 +14.5 100 +14 +14 1033.0 1020.6 53
09 14.09 СВ 2
{6}
н/о н/о +16.8 +16.8 100 +17 +17 1033.1 1020.9 113
10 14.09 В 2 н/о н/о +18.7 +18.7 100 +20 +20 1032.5 1020.4 154
11 14.09 СВ 3 н/о н/о +19.2 +11.1 59 +20 +20 1032.1 1019.9 170
12 14.09 В 2 н/о н/о +20.5 +10.9 54 +23 +23 комфорт 1031.3 1019.2 190
13 14.09 ЮВ 2 н/о н/о +21.6 +10.1 48 +23 +23 комфорт 1030.5 1018.4 188
14 14.09 В 2 н/о н/о +22.3 +9.2 43 +24 +24 комфорт 1029.7 1017.7 171
15 14.09 СВ 3 н/о н/о +22.3 +7.4 38 +23 +23 комфорт 1028.9 1016.9 142
16 14.09 СВ 2 н/о н/о +22.1 +7.9 40 +23 +23 комфорт 1028.5 1016.5 102
17 14.09 СВ 2 н/о н/о +20.7 +8.4 45 +23 +23 комфорт 1028.5 1016.4 33
18 14.09 СВ 2
{5}
н/о н/о +18.8 +8.5 51 +20 +20 1028.2 1016.0 +22.4 11
19 14.09 В 2 н/о н/о +16.3 +8.8 61 +16 +16 1028.2 1015.9
20 14.09 СВ 3 н/о н/о +15.0 +9.4 69 +14 +14 1028.1 1015.8
21 14.09 В 2 н/о н/о +14.0 +12.4 90 +13 +13 1027.9 1015.6
22 14.09 В 1 н/о н/о +12.8 +12.8 100 +13 +13 1027.2 1014.8
23 14.09 ЮВ 2 н/о н/о +12.3 +8.1 76 +11 +11 1026.6 1014.2
00 15.09 Ю 1 н/о н/о +11.9 +7.5 74 +12 +12 1026.2 1013.8 134
01 15.09 Ю 2 н/о н/о +11.5 +11.5 100 +10 +10 1025.9 1013.5
02 15.09 З 2 н/о н/о +10.5 +10.5 100 +9 +9 1025.7 1013.2
03 15.09 ЮЗ 2
{3}
н/о ясно +10.2 +10.2 100 +9 +9 1025.3 1012.8
04 15.09 ЮЗ 2 н/о н/о +10.0 +10.0 100 +8 +8 1025.0 1012.5
05 15.09 ЮЗ 2 н/о н/о +9.9 +9.9 100 +8 +8 1025.0 1012.5
06 15.09 ЮЗ 2
{3}
н/о н/о +9.8 +9.8 100 +8 +8 1024.8 1012.3 +9.7 1
07 15.09 Ю 2 н/о н/о +12.5 +12.5 100 +11 +11 1024.4 1012.1 9
08 15.09 ЮЗ 1 н/о н/о +16.2 +16.2 100 +17 +17 1024.5 1012.3 53
09 15.09 З 2
{4}
н/о н/о +18.3 +18.3 100 +19 +19 1024.7 1012.6 111
10 15.09 З 2 н/о н/о +20.2 +11.4 57 +23 +23 комфорт 1024.6 1012.6 141
11 15.09 З 4 н/о н/о +21.0 +10.8 52 +23 +23 комфорт 1024.5 1012.5 173
12 15.09 З 2 н/о н/о +21.9 +11.7 52 +24 +24 комфорт 1023.9 1011.9 178
13 15.09 З 2 н/о н/о +23.1 +9.8 43 +25 +25 комфорт 1023.3 1011.4 181
14 15.09 З 3 н/о н/о +23.5 +7.8 37 +24 +24 комфорт 1022.7 1010.8 170
15 15.09 З 3 н/о н/о +23.8 +9.0 39 +25 +25 комфорт 1022.4 1010.5 137
16 15.09 СЗ 3 н/о н/о +23.6 +7.4 35 +24 +24 комфорт 1021.8 1009.9 98
17 15.09 СЗ 3 н/о н/о +22.7 +6.1 34 +23 +23 комфорт 1021.8 1009.9 49
18 15.09 СЗ 2
{7}
н/о н/о +20.0 +6.9 43 +21 +21 комфорт 1021.8 1009.8 +24.0 7
19 15.09 н/о н/о +19.3 +9.2 52 1022.4 1010.3
20 15.09 С 2 н/о н/о +17.5 +12.2 71 +18 +18 1022.6 1010.5
21 15.09 СВ 2 н/о н/о +16.3 +16.3 100 +16 +16 1022.5 1010.3
22 15.09 ЮВ 2 н/о н/о +15.1 +15.1 100 +15 +15 1022.3 1010.1
23 15.09 ЮВ 2 н/о н/о +14.8 +14.8 100 +14 +14 1022.1 1009.9
00 16.09 ЮВ 2 н/о н/о +14.7 +14.7 100 +14 +14 1021.5 1009.3 131
01 16.09 З 1 н/о н/о +14.5 +14.5 100 +15 +15 1021.5 1009.3
02 16.09 З 2 н/о 10/10 <50 м
[]
+14.1 +14.1 100 +13 +13 1021.4 1009.2
03 16.09 ЮЗ 1
{4}
н/о 9/9 <50 м
[]
+13.6 +13.6 100 +14 +14 1020.9 1008.6
04 16.09 ЮЗ 2 н/о н/о +13.8 +13.8 100 +13 +13 1020.2 1008.0
05 16.09 ЮЗ 1 н/о н/о +14.0 +14.0 100 +14 +14 1020.1 1007.9
06 16.09 Ю 2
{4}
н/о н/о +14.2 +14.2 100 +14 +14 1020.1 1007.9 +13.3 1
07 16.09 Ю 2 н/о н/о +15.0 +15.0 100 +15 +15 1019.9 1007.7 10
08 16.09 ЮЗ 2 н/о н/о +16.3 +16.3 100 +16 +16 1020.0 1007.9 27
09 16.09 З 2
{5}
н/о н/о +16.8 +16.8 100 +17 +17 1020.2 1008.1 44
10 16.09 З 2 н/о н/о +17.7 +17.7 100 +18 +18 1020.2 1008.1 55
11 16.09 З 2 н/о н/о +18.6 +18.6 100 +20 +20 1019.9 1007.9 80
12 16.09 З 3 н/о н/о +19.5 +19.5 100 +22 +22 комфорт 1019.8 1007.8 87
13 16.09 З 3 н/о н/о +20.3 +20.3 100 +25 +25 комфорт 1019.8 1007.9 89
14 16.09 З 4 н/о н/о +20.3 +20.3 100 +25 +25 комфорт 1019.6 1007.7 63
15 16.09 С 3 н/о н/о +18.5 +18.5 100 +20 +20 1019.8 1007.8 13
16 16.09 С 3 н/о н/о +17.7 +17.7 100 +18 +18 1020.1 1008.0 7
17 16.09 н/о н/о +17.4 +17.4 100 1020.0 1007.9 9
18 16.09 С 2
{8}
н/о н/о +17.0 +17.0 100 +17 +17 1020.2 1008.1 +20.8 2
19 16.09 С 2 н/о н/о +16.5 +16.5 100 +17 +17 1020.5 1008.4
20 16.09 СВ 1 н/о н/о +15.6 +15.6 100 +16 +16 1020.8 1008.6
21 16.09 СВ 1 н/о н/о +15.5 +15.5 100 +16 +16 1021.1 1008.9
22 16.09 С 2 н/о н/о +15.8 +15.8 100 +16 +16 1021.2 1009.0
23 16.09 С 2 н/о н/о +15.4 +15.4 100 +15 +15 1021.4 1009.2
00 17.09 С 2 н/о н/о +15.1 +15.1 100 +15 +15 1021.5 1009.3 49
01 17.09 С 2 н/о н/о +14.9 +14.9 100 +14 +14 1021.2 1009.0
02 17.09 СЗ 3 н/о н/о +14.8 +14.8 100 +14 +14 1021.1 1008.9
03 17.09 СЗ 2 н/о н/о +14.4 +14.4 100 +14 +14 1021.1 1008.9
04 17.09 СЗ 3 н/о н/о +14.2 +14.2 100 +13 +13 1021.2 1009.0
05 17.09 С 2 н/о н/о +13.0 +13.0 100 +12 +12 1021.3 1009.0
06 17.09 С 2
{5}
н/о н/о +12.4 +12.4 100 +11 +11 1021.7 1009.4 +12.4 1
07 17.09 С 2 н/о н/о +13.4 +13.4 100 +13 +13 1021.9 1009.6 9
08 17.09 С 2 н/о н/о +14.7 +14.7 100 +14 +14 1022.4 1010.2 44
09 17.09 СЗ 2
{5}
н/о н/о +15.9 +15.9 100 +16 +16 1022.6 1010.4 115
10 17.09 СЗ 2 н/о н/о +16.2 +16.2 100 +16 +16 1022.7 1010.5 113
11 17.09 СЗ 3 н/о н/о +17.4 +8.7 57 +17 +17 1022.7 1010.5 130
12 17.09 СЗ 3 н/о н/о +18.2 +8.6 53 +19 +19 1022.4 1010.3 174
13 17.09 СЗ 3 н/о н/о +17.8 +8.5 54 +18 +18 1022.2 1010.1 101
14 17.09 СЗ 4 н/о н/о +18.0 +9.2 56 +18 +18 1022.3 1010.2 103

 

Местоположение метеостанции Уккел (Бельгия): широта 50.80 долгота 4.35 высота над уровнем моря 104 м.

В архиве по умолчанию представлена погода в Уккеле за последнюю неделю. Архивные данные за месяц целиком и за предыдущие месяцы, начиная с января 2011 года, Вы можете получить, выбрав интересующий диапазон дат из раскрывающегося списка и нажав кнопку "Ввод!".


*Определитесь, кто Вы:
робот инопланетянин человек

Внимание! Время в таблицах - всемирное. Для получения местного времени необходимо прибавить поправку, которая равна 1 ч.

Смотрите также архив погоды в соседних городах и на ближайших метеорологических станциях:

Погода в Брюсселе (Бельгия) (17 км)
Погода в Эрнаже (Бельгия) (27 км)
Погода в Бовешене (Бельгия) (30 км)
Погода в Шарлеруа (Бельгия) (37 км)
Погода в Мелле (Бельгия) (42 км)
Погода в Шьевре (Бельгия) (45 км)
Погода в Антверпене (Бельгия) (45 км)
Погода в Семмерзэйке (Бельгия) (50 км)
Погода в Шаффене (Бельгия) (55 км)
Погода в Генте (Бельгия) (56 км)

Пояснения к столбцам:

Ветер - указаны скорость ветра в м/с - средняя за 10 мин, порывы в срок и между сроками (в фигурных скобках) и направление, откуда дует ветер: С - северный, СВ - северо-восточный, В - восточный, ЮВ - юго-восточный, Ю - южный, ЮЗ - юго-западный, З - западный, СЗ - северо-западный.
Видимость - горизонтальная дальность видимости в метрах или километрах. При видимости от 1 до 10 км при отсутствии осадков обычно наблюдается дымка, при ухудшении видимости до 1 км и менее - туман. В сухую погоду видимость может ухудшаться дымом, пылью или мглою.
Явления - указаны атмосферные явления, наблюдавшиеся в срок или в последний час перед сроком; фигурными скобками обозначены явления, наблюдавшиеся между сроками (за 1-3 часа до срока); квадратными скобками обозначены град или гололедные отложения с указанием их диаметра в мм.
Облачность - указаны через наклонную черту общая и нижняя облачность в баллах и высота нижней границы облаков в метрах; квадратными скобками обозначены формы облаков: Ci - перистые, Cs - перисто-слоистые, Cc - перисто-кучевые, Ac - высококучевые, As - высокослоистые, Sc - слоисто-кучевые, Ns - слоисто-дождевые, Cu - кучевые, Cb - кучево-дождевые. Подробнее классификацию облаков см. в Атласе облаков (PDF).
T - Температура воздуха - температура, измеренная на высоте 2 м над землей.
Td - Температура точки росы - температура, при понижении до которой содержащийся в воздухе водяной пар достигнет насыщения.
f - Относительная влажность воздуха - влажноcть воздуха, измеренная на высоте 2 м над землей.
Te - Эффективная температура - температура, которую ощущает одетый по сезону человек в тени. Характеристика душности погоды. При расчете учитывается влияние влажности воздуха и скорости ветра на теплоощущения человека.
Tes - Эффективная температура на солнце - температура, которую ощущает человек, с поправкой на солнечный нагрев. Характеристика знойности погоды. Зависит от высоты солнца над горизонтом, облачности и скорости ветра. Ночью, в пасмурную погоду, а также при ветре 12 м/с и более поправка равна нулю.
P - Атмосферное давление - приведенное к уровню моря атмосферное давление.
Po - Атмосферное давление - измеренное на уровне метеостанции атмосферное давление.
Tmin - Минимальная температура - минимум температуры воздуха на высоте 2 м над землей.
Tmax - Максимальная температура - максимум температуры воздуха на высоте 2 м над землей.
R - Количество осадков - Количество выпавших осадков за период времени, мм. При наведении курсора мыши на число - период времени, за который выпало указанное количество осадков.
R24 - Количество осадков - Количество выпавших осадков за 24 часа, мм.
S - Снежный покров - Высота снежного покрова, см. При наведении курсора мыши на число - состояние снежного покрова и степень покрытия местности в баллах.